SUPERBIRD-C2

Last updated on Thu Oct 30 2025 00:02:48 GMT+0000 (Coordinated Universal Time)

1 33274U 08038A 25302.53377932 -.00000239 00000+0 00000+0 0 9992 2 33274 1.7608 84.1948 0001568 158.0914 131.9616 1.00272411103419
UTC large
Height (km)
Speed (km/s)
/
Latitude / Longitude
Inclination (degrees)
Orbital Period (minutes)
Azimuth
Elevation
Range (km)
Doppler Factor

Next 0 passes for location: London (51.5072 / 0.1276)

Sorry there are no passes over London.